This is the latest recevied weather packets stored in our database for station/object EA4HBE-10. If no packets are shown the sender has not sent any weather packets the latest 10 day(s).
| Time | Temp. | Humidity | Pressure | Rain* | Wind** | Luminosity | Snow |
|---|---|---|---|---|---|---|---|
| 1777704851 | 18.89° C | 69% | 1016.7 hPa | - | - | - | - |
| 1777704809 | 18.89° C | 69% | 1016.7 hPa | - | - | - | - |
| 1777704764 | 18.89° C | 69% | 1016.7 hPa | - | - | - | - |
| 1777704741 | 18.89° C | 68% | 1016.7 hPa | - | - | - | - |
| 1777704720 | 18.89° C | 69% | 1016.7 hPa | - | - | - | - |
| 1777704676 | 18.89° C | 69% | 1016.8 hPa | - | - | - | - |
| 1777704633 | 18.89° C | 69% | 1016.8 hPa | - | - | - | - |
| 1777704591 | 18.89° C | 69% | 1016.8 hPa | - | - | - | - |
| 1777704548 | 18.89° C | 69% | 1016.8 hPa | - | - | - | - |
| 1777704506 | 18.89° C | 69% | 1016.8 hPa | - | - | - | - |
| 1777704483 | 18.89° C | 69% | 1016.7 hPa | - | - | - | - |
| 1777704462 | 18.89° C | 70% | 1016.7 hPa | - | - | - | - |
| 1777704440 | 18.89° C | 70% | 1016.8 hPa | - | - | - | - |
| 1777704419 | 18.89° C | 69% | 1016.7 hPa | - | - | - | - |
| 1777704376 | 18.89° C | 69% | 1016.8 hPa | - | - | - | - |
| 1777704333 | 18.89° C | 69% | 1016.8 hPa | - | - | - | - |
| 1777704291 | 18.89° C | 69% | 1016.8 hPa | - | - | - | - |
| 1777704270 | 18.89° C | 69% | 1016.7 hPa | - | - | - | - |
| 1777704252 | 18.89° C | 69% | 1016.8 hPa | - | - | - | - |
| 1777703352 | 18.33° C | 72% | 1016.6 hPa | - | - | - | - |
| 1777702452 | 18.89° C | 70% | 1016.7 hPa | - | - | - | - |
| 1777701552 | 18.89° C | 70% | 1016.5 hPa | - | - | - | - |
| 1777700652 | 18.89° C | 68% | 1016.4 hPa | - | - | - | - |
| 1777699752 | 18.89° C | 70% | 1016.2 hPa | - | - | - | - |
| 1777698852 | 18.89° C | 69% | 1016.2 hPa | - | - | - | - |
* Rain since midnight (hover to see other rain measurements)
** Current wind speed in m/s (hover to see current wind gust speed)